Location: Ciserano
(45.5833°N, 9.6000°E)
Time: 08:17:49
(UTC+00:00)

SJ-12 - Pass Details

Date: 29 November 2020
Orbit: 569 x 583 km, 97.7° (Epoch: 25 January)

Event Time Altitude Azimuth Distance (km) Brightness Sun altitude
Rises 04:15:34 0° 16° (NNE) 2,785 7.5 -24.5°
Reaches altitude 10° 04:17:45 10° 20° (NNE) 1,882 6.7 -24.2°
Maximum altitude 04:21:46 59° 100° (E) 664 4.4 -23.5°
Drops below altitude 10° 04:25:46 10° 181° (S) 1,867 6.6 -22.8°
Sets 04:27:56 0° 185° (S) 2,760 7.4 -22.4°
